{"data":{"norad_id":62377,"epoch":"2026-05-24T14:23:09.458592Z","epoch_age_seconds":119696,"freshness":"FRESH","line1":"1 62377U 24247A   26144.59941503  .00002180  00000+0  19723-3 0  9992","line2":"2 62377  45.4106 190.0937 0001993  94.8243 265.2862 14.98710283 78029","mean_motion":14.98710283,"eccentricity":0.0001993,"inclination_deg":45.4106,"raan_deg":190.0937,"arg_perigee_deg":94.8243,"mean_anomaly_deg":265.2862,"bstar":0.00019723,"rev_number":7802,"period_min":96.082612919524,"perigee_km":569.49520669049,"apogee_km":572.2650849248,"semimajor_km":6949.0171458076,"source":"CELESTRAK","updated_at":"2026-05-25T13:38:02.943347Z"}}